Regional Weather Roundup
Issued by NWS Sioux Falls, SD

Home | Current Version | Previous Version | Text Only | Print | Product List | Glossary Off
Versions: 1 2 3 4 5 6 7 8 9 10 11 12 13 14 15 16 17 18 19 20 21 22 23 24 25 26 27 28 29 30 31 32 33 34 35 36 37 38 39 40 41 42 43 44 45 46 47 48 49 50

000
ASUS43 KFSD 231810
RWRFSD

WEATHER ROUNDUP FOR SE SOUTH DAKOTA/SW MINNESOTA/NW IOWA
NATIONAL WEATHER SERVICE SIOUX FALLS SD
100 PM CDT THU MAR 23 2017

NOTE: "FAIR" INDICATES FEW OR NO CLOUDS BELOW 12,000 FEET WITH NO
SIGNIFICANT WEATHER AND OR OBSTRUCTIONS TO VISIBILITY.


SDZ038>040-050-052>070-231900-
SOUTHEAST SOUTH DAKOTA

CITY           SKY/WX    TMP DP  RH WIND       PRES   REMARKS
BROOKINGS      LGT RAIN  40  29  64 S18G25    29.80F
CHAMBERLAIN    CLOUDY    54  43  65 SE15G21   29.67F
6HR MIN TEMP:  42; 6HR MAX TEMP:  54;

HURON          CLOUDY    45  33  63 S13G22    29.74F
6HR MIN TEMP:  39; 6HR MAX TEMP:  45;

MADISON        LGT RAIN  37  37 100 S14       29.79F
MITCHELL       CLOUDY    46  35  65 S18       29.74F
6HR MIN TEMP:  41; 6HR MAX TEMP:  46; 6HR PCP: TRACE;

SIOUX FALLS    LGT RAIN  42  39  89 SE10      29.80F FOG
6HR MIN TEMP:  39; 6HR MAX TEMP:  45; 6HR PCP:  0.01;

WINNER         CLOUDY    56  45  66 S20G26    29.65F
YANKTON        CLOUDY    48  43  81 SE13      29.74F
$$

MNZ071-072-080-081-089-090-097-098-231900-
SOUTHWEST MINNESOTA

CITY           SKY/WX    TMP DP  RH WIND       PRES   REMARKS
FAIRMONT       LGT RAIN  38  29  70 SE25      29.90F
JACKSON        CLOUDY    37  30  75 SE18G25   29.86F
LUVERNE        CLOUDY    41  32  70 SE16      29.82F
MARSHALL       CLOUDY    41  27  57 S18G26    29.84F
6HR MIN TEMP:  38; 6HR MAX TEMP:  45;

MONTEVIDEO     CLOUDY    43  28  56 S13G20    29.87F
PIPESTONE      CLOUDY    41  27  56 S16G23    29.80F
REDWOOD FALLS  CLOUDY    42  28  57 S21G28    29.92F
TRACY          CLOUDY    42  30  63 S15G26    29.86F
WINDOM         CLOUDY    39  28  65 SE16G22   29.88F
WORTHINGTON    PTSUNNY   41  29  62 SE26G33   29.82F
$$

IAZ001>003-012>014-020>022-031-032-NEZ013-014-SDZ071-231900-
NORTHWEST IOWA

CITY           SKY/WX    TMP DP  RH WIND       PRES   REMARKS
CHEROKEE       CLOUDY    44  36  72 SE9       29.88F
DENISON        CLOUDY    52  37  58 S18G28    29.85F
ESTHERVILLE    CLOUDY    37  31  78 S23G31    29.89F
LE MARS        CLOUDY    50  36  57 SE23      29.81F
ORANGE CITY    CLOUDY    43  39  87 SE12G21   29.81F
SHELDON        MIX PCPN  39  39 100 SE30G41   29.81F
SIOUX CITY     CLOUDY    53  37  54 SE22G28   29.81F
6HR MIN TEMP:  39; 6HR MAX TEMP:  53;

SPENCER        LGT RAIN  39  33  79 SE24G36   29.86F
6HR MIN TEMP:  38; 6HR MAX TEMP:  42; 6HR PCP:  0.24;

STORM LAKE     CLOUDY    45  32  61 SE15      29.91R
$$

ABBREVIATIONS USED IN REMARKS
   TC - TEMPERATURE IN CELSIUS
  WCI - WIND CHILL INDEX
   HX - HEAT INDEX
  VSB - VISIBILITY




USA.gov is the U.S. government's official web portal to all federal, state and local government web resources and services.